Wind_Speed
41 41 45 47 47 46 45 43 42 41 41 42 40 39 39 38 32 31 31 32 30 31 30 29 28 24 23 24 24 25 25 26 27 27 23 21 10 7 10 7 4 14 18 19 21
41 42 43 46 47 47 46 45 42 40 39 39 38 37 35 35 31 28 28 29 26 24 23 23 22 22 23 22 21 20 21 21 18 14 10 10 9 9 7 3 9 18 23 27 25
42 43 44 45 47 48 48 47 45 41 40 38 36 35 33 33 28 23 25 24 23 21 21 20 20 20 20 21 22 19 17 14 9 5 5 7 8 11 11 11 14 19 22 26 27
42 44 44 46 47 49 50 49 48 45 42 40 36 34 32 32 27 25 25 25 22 21 20 20 19 16 17 20 17 14 12 7 4 4 7 11 11 15 13 16 18 24 27 26 23
42 44 44 46 48 48 50 51 50 48 44 41 38 34 32 32 28 26 25 25 22 18 19 20 18 14 15 16 12 9 6 4 3 3 8 13 16 16 20 21 21 22 23 20 18
44 45 45 46 48 48 47 49 50 48 46 43 40 37 35 34 29 28 24 26 22 17 19 18 17 13 12 11 9 6 7 3 6 7 10 13 16 16 19 23 24 23 20 20 15
46 45 46 46 46 49 49 48 49 48 46 46 43 40 37 37 31 30 26 25 22 21 22 17 17 13 12 9 8 7 8 8 11 14 15 13 16 19 22 22 23 22 21 15 5
49 47 47 48 47 46 49 49 47 48 46 45 45 43 39 39 32 32 27 28 25 24 23 19 16 14 12 12 12 12 11 11 14 15 16 17 19 22 24 23 22 20 18 8 3
52 50 49 50 49 47 45 47 49 47 45 45 46 43 40 39 36 34 31 31 28 28 21 20 19 17 16 15 15 13 14 15 16 16 18 20 19 22 21 22 21 18 8 5 7
55 54 51 50 50 49 46 44 46 46 47 46 43 42 42 40 40 37 33 32 33 27 25 22 21 19 19 17 17 16 16 18 19 18 19 20 21 20 20 19 17 12 3 5 4
58 56 53 51 52 50 48 43 40 43 46 44 46 46 45 46 47 41 39 38 36 31 27 24 22 23 24 22 19 20 20 19 22 22 20 21 21 21 19 17 14 4 6 5 5
59 57 55 53 52 52 47 44 43 45 45 48 46 43 42 44 45 42 43 43 36 33 31 28 25 26 28 25 23 22 24 22 24 23 22 22 21 19 18 14 8 9 8 8 3
59 58 56 54 51 53 50 48 46 42 40 39 40 40 41 44 44 43 44 44 39 36 33 30 28 28 30 29 27 26 26 25 26 26 23 22 20 20 17 13 11 11 9 7 3
60 60 58 54 53 56 52 47 43 39 40 40 40 39 40 41 42 42 44 43 40 38 35 33 32 31 33 32 30 30 27 28 28 27 24 22 22 20 16 15 10 11 12 6 6
57 60 58 55 52 53 50 42 44 42 38 38 39 35 35 37 38 39 41 45 44 39 39 36 33 33 35 34 33 32 31 30 29 27 24 21 23 19 17 16 11 19 13 11 9
50 57 58 55 51 51 52 47 43 43 40 38 38 36 35 37 36 37 38 39 39 42 39 40 40 36 32 34 35 34 32 31 30 29 26 20 21 19 22 20 15 10 17 14 8
47 53 56 55 52 50 52 48 44 43 41 39 40 39 36 36 36 37 37 38 39 44 45 42 38 35 34 34 34 34 34 34 32 31 26 20 20 22 18 13 13 13 10 11 10
47 51 54 53 49 49 52 49 43 44 43 40 41 40 38 38 37 37 38 39 39 39 44 43 41 39 35 33 33 33 35 35 34 32 25 18 21 20 14 13 16 15 15 16 21
47 49 50 50 47 48 52 47 42 45 45 40 38 40 39 37 35 35 36 37 38 37 39 40 40 42 41 38 35 34 34 35 34 29 26 23 22 19 22 17 20 17 19 25 28
47 48 49 49 47 49 48 46 43 42 45 42 37 41 42 40 37 35 35 34 34 33 35 41 43 44 43 41 38 36 35 35 31 28 27 26 23 21 21 22 14 19 3 24 35
46 47 47 47 47 48 48 47 42 44 45 45 40 39 41 40 38 37 35 34 34 33 33 37 44 45 47 45 42 40 35 33 32 32 30 26 19 24 16 22 29 23 19 37 36
45 46 46 47 48 49 46 43 41 43 43 42 40 40 40 40 38 36 35 32 32 34 36 39 40 41 45 42 39 39 38 39 38 37 30 23 17 29 26 31 37 37 35 43 49
45 46 45 45 45 45 43 42 41 41 43 39 40 42 42 41 39 33 32 32 35 37 37 38 39 39 40 37 38 40 37 40 39 38 29 23 18 29 36 37 39 50 47 48 51
43 43 42 45 43 42 43 43 42 41 40 42 41 39 40 38 38 35 34 36 36 36 37 36 35 37 37 32 34 36 38 36 36 34 28 21 20 23 38 41 41 44 49 54 58
40 41 43 40 43 45 45 47 43 41 38 37 36 38 37 30 32 31 32 33 32 31 32 34 36 34 34 29 28 32 37 36 33 34 29 26 17 12 32 45 50 51 54 51 56
41 43 44 45 45 45 45 46 45 44 41 39 40 43 37 36 32 30 30 31 31 29 30 33 33 34 34 30 28 29 35 36 31 34 34 27 25 19 21 26 33 38 40 41 44
42 43 42 41 44 47 49 49 45 43 45 42 40 36 32 29 28 27 23 23 22 26 32 28 29 32 35 31 29 29 36 35 31 35 32 32 34 32 26 30 35 39 43 48 51
Wind_Direction
222 221 219 217 217 218 220 219 219 224 231 234 237 240 244 246 249 251 258 263 268 274 278 280 287 284 286 289 289 287 296 296 294 294 296 295 297 287 319 324 296 322 319 316 319
223 222 221 221 220 218 218 220 222 223 227 232 234 237 241 242 243 249 254 260 266 269 272 277 278 282 283 288 296 302 300 302 296 296 317 318 328 334 3 347 290 288 293 310 313
226 224 222 220 221 221 220 219 219 222 224 227 228 232 234 236 236 240 248 253 259 264 269 274 280 288 299 304 307 311 314 307 309 331 -0 335 343 345 344 330 327 311 306 310 312
227 226 225 222 221 221 221 219 219 220 222 226 227 229 231 235 231 234 244 249 255 259 265 273 279 295 301 305 320 308 311 302 334 22 358 336 352 337 330 317 312 308 313 314 322
230 227 225 225 224 222 222 222 220 219 220 223 226 228 232 233 232 234 241 247 251 263 269 268 275 281 295 304 309 286 287 325 322 13 336 325 335 328 320 316 314 315 310 312 312
231 229 226 225 224 224 223 222 222 222 222 223 227 227 231 235 233 235 242 247 253 261 263 265 268 276 284 298 290 252 275 251 306 315 320 317 321 324 325 323 320 315 310 307 309
229 229 228 226 225 224 223 223 223 222 223 225 227 229 230 236 234 235 239 249 250 256 260 261 264 265 276 283 256 239 270 288 299 307 318 328 328 336 333 331 327 320 314 306 306
230 229 228 227 225 225 224 223 223 223 223 224 226 229 231 235 237 239 242 252 249 252 256 259 263 257 260 262 249 239 253 275 292 300 312 323 336 339 337 332 329 327 322 312 91
230 228 228 227 225 225 224 224 224 224 225 227 227 228 232 236 238 240 242 247 251 253 261 260 254 253 255 254 248 248 260 272 282 295 315 329 335 337 336 330 333 334 323 63 41
228 227 227 227 226 224 224 224 225 226 228 229 229 228 232 236 239 239 245 248 250 252 255 254 251 250 253 252 249 253 265 279 283 294 313 321 327 332 331 331 332 337 59 78 52
226 226 226 227 226 224 223 224 225 226 226 228 230 230 232 235 237 238 245 247 248 250 251 255 251 247 252 252 252 255 261 273 284 289 304 317 320 323 326 331 321 272 156 107 44
224 224 223 225 226 225 223 223 222 224 225 227 229 228 230 233 237 238 238 243 246 248 248 250 252 249 250 253 254 261 266 273 276 283 297 311 315 317 321 318 291 245 179 115 84
220 221 221 223 224 224 223 221 223 226 230 231 234 235 234 232 232 232 236 241 243 245 247 253 253 251 249 252 257 261 266 271 276 283 297 309 308 307 314 298 264 228 161 129 211
216 217 219 220 221 221 222 221 223 225 227 228 231 232 236 230 227 230 234 240 241 244 245 247 248 252 251 250 254 259 264 271 276 285 296 303 301 305 311 271 278 208 185 184 167
214 214 215 217 218 220 221 220 222 224 225 229 229 231 230 226 225 228 234 239 239 242 243 248 253 255 252 252 253 259 263 268 276 284 291 293 300 299 290 250 281 168 182 215 229
211 211 212 213 216 216 216 219 222 224 224 229 228 227 226 227 228 231 233 237 241 243 245 243 243 251 261 259 258 259 264 269 272 278 287 300 296 295 288 257 264 210 192 210 243
208 208 210 211 214 215 215 218 221 221 223 228 226 225 225 227 228 231 235 237 237 238 241 245 251 254 257 260 262 260 261 264 271 276 284 289 295 287 282 262 255 225 244 246 254
205 204 207 210 212 213 212 216 219 221 220 227 228 226 227 228 231 234 235 237 242 246 242 239 241 247 252 254 258 260 261 265 269 276 284 286 288 281 261 242 221 218 252 262 266
202 202 204 207 212 213 212 216 220 222 221 223 227 226 229 230 233 235 238 240 242 246 241 242 244 248 251 255 260 264 264 266 270 277 280 280 283 264 248 240 233 237 269 277 260
200 201 203 205 210 210 210 215 219 223 223 221 227 226 225 229 233 234 234 238 243 246 242 242 246 249 252 255 258 262 266 267 273 276 277 284 282 267 250 217 217 222 205 297 270
198 199 203 208 210 208 208 216 217 219 222 223 224 227 230 230 232 235 237 241 243 244 244 244 246 251 254 256 258 261 267 273 273 275 276 280 278 255 234 192 180 199 202 236 269
196 199 203 208 208 205 209 217 222 221 223 224 229 227 229 233 235 237 238 244 247 243 243 243 247 249 254 259 260 261 265 268 271 271 277 280 258 213 231 211 193 219 234 246 256
196 199 204 207 205 206 213 218 220 221 223 224 229 233 232 231 232 237 243 244 245 250 249 249 250 252 255 258 261 263 263 266 269 274 273 265 250 226 226 217 226 227 239 250 261
197 202 208 208 202 205 211 217 220 223 227 227 229 235 236 236 237 235 236 241 245 247 252 255 253 254 255 256 259 266 267 268 271 269 272 266 256 237 222 223 234 237 244 251 255
197 203 206 202 206 209 210 216 219 222 224 223 224 234 231 235 240 241 245 248 250 251 251 254 259 261 262 255 251 255 259 262 264 268 265 263 267 245 225 236 245 247 249 257 262
199 202 203 202 205 208 210 215 219 220 224 228 233 240 239 234 232 235 236 239 244 249 251 255 261 261 259 256 252 247 255 260 264 263 268 288 289 268 252 253 254 257 260 266 270
201 203 203 202 204 207 210 219 223 220 220 225 232 240 241 249 242 232 235 236 241 244 250 248 255 261 266 263 257 258 259 263 261 267 274 271 276 288 272 272 275 279 283 285 287
Height
10939 10943 10947 10952 10957 10961 10966 10971 10976 10980 10985 10989 10993 10997 10999 11003 11006 11007 11005 11005 11010 11008 11008 11008 11009 11009 11008 11007 11005 11002 10999 10998 10995 10991 10990 10989 10990 10988 10986 10987 10984 10981 10983 10979 10978
10931 10936 10940 10945 10950 10955 10960 10965 10971 10975 10980 10984 10988 10992 10994 10998 11002 11003 11002 11002 11006 11005 11003 11005 11005 11004 11003 11002 11002 10997 10997 10996 10994 10991 10990 10986 10986 10986 10987 10987 10986 10980 10979 10978 10975
10924 10929 10933 10938 10943 10948 10953 10959 10965 10970 10975 10979 10984 10987 10990 10992 10997 11000 10998 10999 11001 11002 11001 11002 11001 11000 10999 10996 10996 10993 10993 10993 10991 10992 10989 10986 10987 10985 10984 10982 10981 10977 10976 10973 10969
10917 10921 10926 10931 10936 10941 10947 10953 10959 10964 10969 10973 10978 10982 10984 10986 10994 10995 10993 10996 10997 10998 10999 10997 10998 10999 10996 10993 10993 10990 10991 10991 10992 10992 10989 10986 10987 10985 10984 10982 10979 10975 10971 10969 10965
10908 10913 10918 10923 10929 10934 10940 10946 10952 10958 10962 10968 10972 10976 10978 10982 10987 10989 10990 10992 10994 10995 10995 10994 10996 10995 10994 10993 10992 10990 10990 10991 10992 10992 10990 10986 10985 10985 10981 10978 10977 10976 10971 10968 10964
10899 10904 10910 10915 10920 10926 10932 10939 10945 10951 10956 10962 10965 10970 10973 10977 10982 10985 10987 10988 10990 10992 10990 10992 10992 10992 10993 10992 10992 10990 10989 10990 10990 10990 10990 10989 10986 10984 10980 10976 10974 10971 10969 10963 10963
10889 10895 10901 10906 10912 10918 10924 10931 10937 10943 10950 10955 10959 10963 10967 10970 10978 10980 10982 10982 10986 10987 10986 10988 10989 10990 10991 10992 10991 10991 10989 10989 10989 10987 10987 10988 10985 10982 10978 10974 10970 10966 10963 10963 10961
10879 10885 10891 10897 10903 10909 10916 10923 10930 10936 10943 10948 10951 10955 10962 10965 10973 10975 10978 10977 10981 10981 10982 10984 10986 10988 10989 10990 10990 10989 10989 10988 10986 10986 10985 10984 10983 10979 10975 10972 10968 10965 10962 10961 10962
10869 10875 10881 10887 10894 10901 10908 10915 10922 10929 10935 10939 10943 10951 10957 10960 10965 10969 10973 10973 10975 10976 10980 10981 10982 10984 10985 10986 10987 10987 10985 10985 10984 10983 10983 10981 10982 10978 10974 10968 10965 10962 10960 10961 10961
10857 10864 10871 10878 10885 10892 10899 10906 10914 10921 10927 10932 10939 10945 10949 10954 10957 10963 10967 10969 10968 10973 10974 10976 10978 10980 10981 10982 10984 10983 10983 10980 10981 10981 10981 10980 10979 10977 10972 10967 10962 10959 10960 10960 10959
10845 10854 10861 10869 10876 10884 10892 10900 10908 10912 10915 10924 10927 10934 10940 10944 10947 10955 10960 10962 10963 10967 10969 10971 10974 10975 10975 10978 10980 10980 10979 10979 10978 10978 10979 10978 10975 10972 10970 10965 10960 10957 10955 10957 10961
10834 10843 10852 10859 10867 10876 10885 10893 10896 10900 10907 10910 10918 10926 10931 10935 10940 10948 10952 10952 10958 10961 10963 10965 10969 10971 10970 10972 10974 10975 10973 10975 10974 10975 10977 10974 10971 10968 10965 10963 10958 10956 10957 10958 10959
10822 10832 10842 10851 10859 10868 10875 10881 10887 10896 10903 10910 10915 10921 10923 10926 10932 10939 10943 10944 10951 10954 10957 10961 10964 10965 10966 10966 10968 10969 10969 10969 10969 10970 10972 10970 10967 10963 10964 10959 10956 10955 10958 10957 10954
10811 10821 10832 10842 10850 10855 10866 10877 10885 10892 10895 10901 10905 10912 10915 10919 10924 10930 10935 10938 10944 10947 10951 10954 10956 10959 10960 10961 10962 10961 10964 10963 10964 10965 10968 10966 10961 10959 10958 10953 10959 10955 10955 10954 10951
10801 10812 10822 10833 10842 10852 10863 10876 10878 10883 10890 10895 10898 10904 10908 10912 10916 10922 10928 10930 10935 10940 10943 10948 10952 10952 10952 10954 10956 10956 10957 10958 10959 10960 10962 10961 10957 10955 10953 10950 10954 10951 10952 10950 10951
10792 10803 10815 10826 10836 10845 10856 10864 10870 10876 10882 10886 10893 10897 10900 10904 10910 10915 10920 10923 10930 10933 10939 10940 10941 10945 10948 10949 10949 10950 10951 10951 10953 10954 10957 10958 10952 10950 10947 10948 10951 10950 10947 10947 10950
10786 10796 10808 10818 10828 10837 10848 10856 10861 10867 10875 10880 10884 10889 10895 10899 10904 10908 10913 10917 10920 10922 10926 10933 10938 10941 10941 10942 10942 10944 10944 10944 10946 10947 10953 10952 10950 10943 10946 10947 10943 10944 10946 10949 10950
10780 10790 10801 10812 10822 10831 10839 10848 10855 10859 10866 10872 10878 10884 10888 10892 10897 10902 10906 10910 10913 10917 10921 10926 10930 10931 10933 10934 10934 10936 10936 10937 10939 10941 10946 10949 10944 10941 10940 10939 10938 10941 10944 10947 10949
10775 10785 10797 10807 10816 10824 10832 10843 10849 10852 10859 10867 10872 10878 10882 10887 10891 10896 10899 10903 10906 10910 10916 10920 10923 10923 10924 10926 10928 10930 10930 10931 10931 10936 10938 10940 10939 10937 10935 10935 10936 10942 10943 10942 10944
10770 10781 10792 10801 10808 10816 10828 10835 10839 10848 10853 10857 10865 10870 10874 10880 10885 10888 10892 10897 10900 10904 10908 10912 10914 10914 10916 10919 10921 10922 10923 10924 10927 10929 10930 10932 10932 10929 10929 10931 10935 10935 10933 10940 10939
10767 10777 10787 10795 10802 10811 10820 10825 10835 10837 10844 10850 10857 10862 10868 10872 10877 10881 10887 10890 10894 10898 10901 10904 10904 10907 10907 10911 10913 10915 10917 10918 10919 10920 10923 10926 10926 10921 10924 10927 10929 10925 10926 10925 10920
10764 10774 10781 10786 10795 10806 10814 10822 10830 10833 10839 10845 10853 10855 10860 10866 10871 10877 10881 10885 10888 10890 10892 10893 10895 10898 10898 10903 10907 10907 10910 10908 10908 10910 10916 10919 10919 10918 10917 10926 10923 10921 10917 10915 10911
10759 10768 10774 10783 10792 10803 10811 10817 10822 10827 10833 10841 10846 10850 10855 10861 10866 10871 10876 10877 10878 10880 10883 10886 10889 10891 10893 10897 10897 10897 10900 10898 10898 10899 10907 10911 10910 10909 10911 10913 10914 10911 10907 10903 10899
10758 10765 10772 10779 10793 10799 10804 10808 10817 10822 10829 10834 10838 10842 10850 10853 10860 10864 10867 10868 10871 10874 10874 10877 10881 10881 10885 10892 10891 10889 10887 10891 10891 10891 10896 10902 10904 10900 10904 10902 10899 10899 10896 10895 10895
10757 10761 10766 10779 10786 10791 10796 10799 10808 10814 10820 10826 10830 10831 10843 10850 10854 10858 10861 10864 10866 10868 10870 10871 10870 10874 10877 10881 10884 10882 10877 10880 10881 10882 10887 10889 10890 10893 10893 10893 10891 10889 10888 10887 10889
10747 10752 10758 10768 10776 10785 10791 10796 10800 10806 10813 10820 10825 10827 10838 10841 10844 10850 10854 10856 10857 10861 10862 10863 10865 10864 10866 10871 10873 10873 10871 10870 10876 10875 10875 10878 10880 10882 10883 10881 10880 10880 10883 10884 10880
10740 10747 10755 10765 10771 10775 10782 10787 10796 10803 10807 10814 10820 10828 10833 10836 10840 10845 10849 10852 10851 10851 10851 10858 10858 10857 10857 10862 10864 10866 10863 10866 10870 10868 10870 10870 10869 10873 10872 10869 10868 10869 10867 10863 10859